Regional Weather Roundup
Issued by NWS Spokane, WA

Home | Current Version | Previous Version | Text Only | Print | Product List | Glossary On
Versions: 1 2 3 4 5 6 7 8 9 10 11 12 13 14 15 16 17 18 19 20 21 22 23 24 25 26 27 28 29 30 31 32 33 34 35 36 37 38 39 40 41 42 43 44 45 46 47 48 49 50
000
NZUS01 KOTX 281410
RWROTX
EASTERN WASHINGTON/NORTHERN IDAHO ROUNDUP
NATIONAL WEATHER SERVICE, SPOKANE WA
700 AM PDT SAT MAY 28 2016

Note: "fair" indicated few or no clouds below 12,000 feet with no
significant weather and/or obstructions to visibility.

...NORTHEAST WASHINGTON AND NORTHERN IDAHO PANHANDLE...

CITY           SKY/WX    TMP DP  RH WIND       PRES   REMARKS
SPOKANE INTL   CLOUDY    44  35  70 SW12      30.04R
SPOKANE DOWNTO PTSUNNY   47  35  63 SW7       30.06R
COEUR D ALENE  MOSUNNY   46  34  61 CALM      30.05R
DEER PARK      PTSUNNY   44  35  70 SE9       30.05R
SANDPOINT      MOSUNNY   46  43  87 S5        30.04S
BONNERS FERRY  CLOUDY    43  41  93 CALM      30.03S

...SOUTHEAST WASHINGTON AND SOUTHERN IDAHO PANHANDLE...

CITY           SKY/WX    TMP DP  RH WIND       PRES   REMARKS
WALLA WALLA    MOSUNNY   50  37  61 S12       30.10S
PULLMAN/MOSCOW CLOUDY    46  36  68 W8        30.09R
LEWISTON       PTSUNNY   48  41  76 N5        30.08R
LOWELL           N/A     46  42  86 CALM      30.11S

...COLUMBIA BASIN...

CITY           SKY/WX    TMP DP  RH WIND       PRES   REMARKS
EPHRATA        PTSUNNY   51  37  58 SW5       30.03R
MOSES LAKE     PTSUNNY   52  36  54 SW7       30.05R
TRI CITIES     MOSUNNY   53  38  56 SW8       30.09R
HERMISTON      MOSUNNY   53  39  59 SW10      30.10R
PENDLETON      PTSUNNY   48  36  63 S5        30.09S

...EAST SLOPES CASCADES...

CITY           SKY/WX    TMP DP  RH WIND       PRES   REMARKS
THE DALLES     MOSUNNY   53  41  63 NW6       30.11S
YAKIMA         PTSUNNY   55  33  43 CALM      30.07S
ELLENSBURG     PTSUNNY   49  37  63 NW13      30.05S
STAMPEDE PASS  FOG       35  33  92 VRB3      30.06S VSB 1/4
WENATCHEE      PTSUNNY   50  35  56 VRB5      30.03S
OMAK           PTSUNNY   51  36  56 NE3       30.01R

...SOUTHERN BRITISH COLUMBIA...

CITY           SKY/WX    TMP DP  RH WIND       PRES   REMARKS
PENTICTON      PTSUNNY   48  37  66 CALM      30.01S
CASTLEGAR      LGT RAIN  45  43  93 W5        30.03R
CRANBROOK      PTSUNNY   43  37  81 VRB2      29.98S

...WESTERN MONTANA...

CITY           SKY/WX    TMP DP  RH WIND       PRES   REMARKS
MISSOULA       MOSUNNY   43  35  73 SE3       30.07R

...NEIGHBORING CITIES...

CITY           SKY/WX    TMP DP  RH WIND       PRES   REMARKS
SEATTLE        CLOUDY    50  46  86 S9        30.09F
CALGARY        MOSUNNY   43  39  87 SW5       29.89S FOG



USA.gov is the U.S. government's official web portal to all federal, state and local government web resources and services.